Location: Newark
(48.2308°N, 120.8549°W)
Time: 01:25:48
(UTC+00:00)

Transit 2A Rocket - Pass Details

Date: 01 June 2020
Orbit: 584 x 919 km, 66.7° (Epoch: 13 July)

Event Time Altitude Azimuth Distance (km) Brightness Sun altitude
Rises 11:41:12 0° 321° (NW) 3,411 8.4 -4.2°
Reaches altitude 10° 11:44:41 10° 343° (NNW) 2,530 8.0 -3.7°
Maximum altitude 11:48:16 16° 20° (NNE) 2,161 8.4 -3.3°
Drops below altitude 10° 11:51:56 10° 58° (ENE) 2,604 9.8 -2.8°
Sets 11:55:35 0° 79° (ENE) 3,560 9.8 -2.3°
